Flight Track Log - Related Links

Times and Time Zones

All times are in EDT time to prevent confusion due to time zone crossing. See the UAL4536 flight status page for this flight to view local times or setup timezone preferences in your user account.

Time Position Orientation Groundspeed Altitude Reporting Facility
EDT Latitude Longitude Course Direction KTS MPH feet Rate Location/Type
Sun 11:43:32 AM 36.1942 -95.9231 208° Southwest 178 205 1,500  Level Kansas City Center
Sun 11:45:11 AM 36.1519 -95.9864 230° Southwest 231 266 4,700 2,178 Climbing Kansas City Center
Sun 11:46:09 AM 36.0672 -95.9628 167° South 297 342 7,200 2,371 Climbing Kansas City Center
Sun 11:47:00 AM 35.8539 -95.8557 180° South  Level Estimated
Sun 11:47:15 AM 35.9825 -95.9414 168° South 285 328 9,600  Level Kansas City Center
Sun 11:48:00 AM 35.7678 -95.8476 172° South  Level Estimated
Sun 11:48:17 AM 35.8972 -95.9183 168° South 302 348 10,500  Level Kansas City Center
Sun 11:49:00 AM 35.6696 -95.8384 208° Southwest  Level Estimated
Sun 11:49:19 AM 35.7961 -95.8919 168° South 356 410 11,900  Level Kansas City Center
Sun 11:50:20 AM 35.6961 -95.8669 169° South 366 421 13,500 1,412 Climbing Kansas City Center
Sun 11:51:18 AM 35.5850 -95.9078 197° South 372 428 14,700 1,322 Climbing Fort Worth Center
Sun 11:52:18 AM 35.4853 -95.9478 198° South 372 428 16,100 1,350 Climbing Fort Worth Center
Sun 11:53:18 AM 35.3814 -95.9853 196° South 377 434 17,400 1,100 Climbing Fort Worth Center
Sun 11:54:18 AM 35.2775 -96.0250 197° South 383 441 18,300 950 Climbing Fort Worth Center
Sun 11:55:18 AM 35.1675 -96.0650 197° South 398 458 19,300 1,100 Climbing Fort Worth Center
Sun 11:56:18 AM 35.0594 -96.1097 199° South 408 470 20,500 1,200 Climbing Fort Worth Center
Sun 11:57:18 AM 34.9494 -96.1494 196° South 408 470 21,700 1,300 Climbing Fort Worth Center
Sun 11:58:18 AM 34.8372 -96.1917 197° South 418 481 23,100 1,400 Climbing Fort Worth Center
Sun 11:59:18 AM 34.7292 -96.2336 198° South 418 481 24,500 1,400 Climbing Fort Worth Center
Sun 12:00:18 PM 34.6167 -96.2731 196° South 418 481 25,900 1,300 Climbing Fort Worth Center
Sun 12:01:18 PM 34.5108 -96.3147 198° South 418 481 27,100 1,200 Climbing Fort Worth Center
Sun 12:02:18 PM 34.4047 -96.3539 197° South 418 481 28,300 1,300 Climbing Fort Worth Center
Sun 12:03:18 PM 34.3006 -96.3928 197° South 411 473 29,700 1,650 Climbing Fort Worth Center
Sun 12:04:18 PM 34.1967 -96.4317 197° South 400 460 31,600 1,450 Climbing Fort Worth Center
Sun 12:05:18 PM 34.1156 -96.4628 198° South 395 455 32,600 1,200 Climbing Fort Worth Center
Sun 12:06:18 PM 33.9989 -96.5042 196° South 377 434 34,000 700 Climbing Fort Worth Center
Sun 12:07:18 PM 33.8908 -96.5428 197° South 384 442 34,000 50 Level Fort Worth Center
Sun 12:08:18 PM 33.7928 -96.5786 197° South 408 470 34,100  Climbing Fort Worth Center
Sun 12:09:18 PM 33.6783 -96.6197 197° South 422 486 34,000 -50 Descending Fort Worth Center
Sun 12:10:18 PM 33.5700 -96.6606 197° South 422 486 34,000  Level Fort Worth Center
Sun 12:11:18 PM 33.4617 -96.6989 196° South 413 475 34,000  Level Fort Worth Center
Sun 12:12:18 PM 33.3556 -96.7369 197° South 413 475 34,000  Level Fort Worth Center
Sun 12:13:18 PM 33.2472 -96.7775 197° South 408 470 34,000  Level Fort Worth Center
Sun 12:14:18 PM 33.1325 -96.8156 196° South 399 459 34,000  Level Fort Worth Center
Sun 12:15:18 PM 33.0306 -96.8533 197° South 394 453 34,000  Level Fort Worth Center
Sun 12:16:49 PM 32.8897 -96.9019 196° South 388 447 34,000  Level Houston Center
Sun 12:17:18 PM 32.8197 -96.8844 168° South 380 437 34,000  Level Fort Worth Center
Sun 12:18:18 PM 32.7111 -96.8531 166° South 385 443 34,000  Level Fort Worth Center
Sun 12:19:18 PM 32.6150 -96.8239 166° South 391 450 34,000  Level Fort Worth Center
Sun 12:20:18 PM 32.5061 -96.7925 166° South 396 456 34,000 -200 Level Fort Worth Center
Sun 12:21:18 PM 32.3953 -96.7639 168° South 403 464 33,600 -600 Descending Fort Worth Center
Sun 12:22:18 PM 32.2803 -96.7278 165° South 419 482 32,800 -750 Descending Fort Worth Center
Sun 12:23:18 PM 32.1653 -96.6967 167° South 433 498 32,100 -750 Descending Fort Worth Center
Sun 12:24:18 PM 32.0442 -96.6633 167° South 433 498 31,300 -800 Descending Fort Worth Center
Sun 12:25:18 PM 31.9186 -96.6278 166° South 433 498 30,500 -750 Descending Fort Worth Center
Sun 12:26:18 PM 31.7994 -96.5944 167° South 433 498 29,800 -750 Descending Fort Worth Center
Sun 12:27:18 PM 31.6822 -96.5589 166° South 433 498 29,000 -429 Descending Fort Worth Center
Sun 12:28:10 PM 31.5872 -96.5331 167° South 431 496 29,000  Level Houston Center
Sun 12:29:12 PM 31.4747 -96.4981 165° South 420 483 29,000 -145 Level Houston Center
Sun 12:30:14 PM 31.3619 -96.4539 162° South 418 481 28,700 -823 Descending Houston Center
Sun 12:31:16 PM 31.2508 -96.4131 163° South 416 479 27,300 -1,632 Descending Houston Center
Sun 12:32:19 PM 31.1367 -96.3697 162° South 421 484 25,300 -1,968 Descending Houston Center
Sun 12:33:21 PM 31.0169 -96.3264 163° South 433 498 23,200 -2,129 Descending Houston Center
Sun 12:34:23 PM 30.8958 -96.2806 162° South 444 511 20,900 -2,516 Descending Houston Center
Sun 12:35:25 PM 30.7711 -96.1978 150° Southeast 442 509 18,000 -2,661 Descending Houston Center
Sun 12:36:27 PM 30.6850 -96.1061 138° Southeast 419 482 15,400 -2,371 Descending Houston Center
Sun 12:37:29 PM 30.6067 -96.0244 138° Southeast 394 453 13,100 -2,000 Descending Houston Center
Sun 12:38:30 PM 30.5272 -95.9417 138° Southeast 326 375 11,300 -1,525 Descending Houston Center
Sun 12:39:31 PM 30.4625 -95.8739 138° Southeast 305 351 10,000 -1,024 Descending Houston Center
Sun 12:40:33 PM 30.3931 -95.8481 162° South 276 318 9,200 -976 Descending Houston Center
Sun 12:41:34 PM 30.3111 -95.8456 178° South 275 316 8,000 -571 Descending Houston Center
Sun 12:42:39 PM 30.2358 -95.8425 178° South 270 311 8,000 -98 Level Houston Center
Sun 12:43:37 PM 30.1678 -95.8381 177° South 239 275 7,800 -774 Descending Houston Center
Sun 12:44:43 PM 30.1111 -95.7956 147° Southeast 240 276 6,400 -1,268 Descending Houston Center
Sun 12:45:40 PM 30.0569 -95.7472 142° Southeast 232 267 5,200 -661 Descending Houston Center
Sun 12:46:41 PM 30.0064 -95.7000 141° Southeast 233 268 5,100 -98 Descending Houston Center
Sun 12:47:42 PM 29.9917 -95.6294 104° East 249 287 5,000 -295 Descending Houston Center
Sun 12:48:43 PM 29.9911 -95.5522 90° East 213 245 4,500 -836 Descending Houston Center
Sun 12:49:44 PM 29.9917 -95.4894 89° East 190 219 3,300 -1,180 Descending Houston Center

Login

Don't have an account? Register now (free) for customized features, flight alerts, and more!